RH
30 17 8 3 2 2 3 3 3 4 4 4 4 6 8 9 11 11 11 13 13 14 16 16 18 20 21 23 24 26 28 28 29 29 30 32 33 36 38 39 42 42 41 42 43 44 44 43 43 41 38 35 31 30 28 28 29 29 33 35 36 42 45 49 52 39 23 23 26 22 22 22 20 19 21 21 26 32 37 42 45 47 49 44 31
27 13 6 4 3 3 3 3 4 4 4 4 4 6 9 10 11 11 12 13 13 14 16 17 19 20 22 24 25 27 28 29 29 29 30 32 33 36 38 40 42 42 41 41 41 42 42 40 40 37 34 31 29 28 27 27 29 29 32 35 35 39 44 46 49 46 32 23 24 24 23 23 21 19 20 18 18 21 24 29 35 39 46 49 40
24 10 5 4 2 3 3 3 4 4 4 4 4 6 9 10 11 12 12 13 14 15 16 18 20 21 22 24 25 27 28 28 29 29 30 31 33 35 38 40 41 41 39 40 40 41 40 38 37 34 32 30 27 27 27 27 29 30 31 34 34 36 40 42 44 45 38 27 24 25 24 24 23 21 21 20 19 20 21 23 26 31 38 47 46
21 8 4 3 2 3 4 4 4 5 5 4 4 7 10 11 11 12 12 13 14 15 17 18 20 21 22 24 25 27 28 28 28 29 30 31 33 35 37 39 40 40 38 38 39 39 38 37 35 33 30 29 27 27 27 28 29 31 32 34 35 36 37 40 41 42 41 34 26 26 27 25 25 24 24 25 27 29 30 30 29 28 32 41 46
18 8 4 3 3 3 3 4 4 4 5 4 4 7 10 11 12 12 13 14 15 15 17 18 19 21 22 24 25 26 27 28 28 29 30 31 33 34 36 39 39 38 37 37 38 37 37 36 34 32 29 28 27 27 27 28 30 32 35 36 37 38 37 39 40 41 41 37 30 27 28 27 27 28 29 31 36 43 46 46 42 37 36 38 42
16 8 4 3 3 3 4 5 4 5 5 4 4 7 10 11 12 13 13 14 15 16 17 18 20 21 22 23 25 26 27 27 27 28 29 30 32 34 36 38 38 38 37 37 37 37 36 35 32 30 28 26 27 27 27 29 30 33 36 37 38 39 38 39 40 40 40 37 33 30 29 29 30 32 34 36 42 51 58 59 55 51 51 48 44
15 7 4 3 3 3 4 4 4 5 5 4 5 7 10 11 12 13 14 14 15 16 17 19 19 21 22 23 24 25 26 27 27 28 28 30 31 33 36 37 37 37 37 37 37 37 35 34 32 29 27 26 26 27 28 29 31 34 37 38 39 39 39 39 40 40 39 37 34 32 32 32 32 34 39 44 48 56 63 66 62 58 60 62 57
14 6 4 3 3 3 4 5 5 5 5 5 5 6 9 11 12 13 14 14 15 16 17 19 19 20 22 23 23 25 25 26 26 27 28 29 31 32 35 36 36 36 37 37 37 36 34 33 31 28 27 26 26 27 28 29 32 34 37 40 40 40 40 40 40 40 40 39 36 33 32 33 34 37 42 47 52 58 66 72 71 68 64 61 61
13 5 4 3 3 4 4 5 6 6 6 5 5 7 10 11 12 14 14 15 15 16 18 19 19 20 21 22 23 24 25 26 26 26 28 29 30 31 33 34 34 35 35 36 37 36 34 32 30 28 26 26 26 26 27 29 32 34 37 39 40 40 40 40 40 40 40 38 36 34 34 35 37 40 44 49 52 55 62 70 75 79 76 64 58
12 5 4 3 3 4 4 5 6 6 6 6 5 6 9 11 12 14 14 15 16 16 18 19 19 20 21 22 23 24 25 25 26 26 27 28 30 31 32 33 34 33 34 35 36 35 33 31 29 28 26 25 26 26 27 29 32 34 36 38 39 40 40 40 39 39 38 36 35 34 35 38 41 46 48 50 52 51 55 64 70 80 88 81 66
14 6 4 3 3 4 5 6 6 6 6 6 5 7 9 11 13 13 15 15 15 16 18 18 19 20 21 22 23 24 24 25 25 26 26 27 29 31 32 33 34 34 34 35 35 34 33 30 28 27 26 26 26 26 27 28 30 33 34 36 37 38 39 39 37 37 36 35 34 35 38 42 47 50 52 53 54 51 50 55 65 78 93 98 85
17 7 4 4 4 4 5 6 6 6 6 6 6 7 9 11 12 13 15 15 15 17 18 18 19 20 21 22 22 23 24 24 24 25 25 26 28 31 33 34 34 35 35 35 34 33 32 30 28 27 27 27 27 27 28 28 29 31 32 33 34 34 35 36 35 34 34 33 35 39 43 48 52 54 56 57 55 51 51 56 64 74 85 95 92
20 9 4 4 4 4 5 6 6 6 6 6 6 7 9 11 12 13 15 15 16 17 18 18 19 19 21 22 22 23 23 23 24 24 25 25 27 30 33 34 34 35 35 35 34 32 31 29 27 27 28 29 29 29 29 28 28 29 31 31 31 31 31 32 32 31 32 34 39 46 51 56 58 52 48 50 54 60 65 66 69 72 73 75 76
24 11 5 4 4 4 5 5 6 6 6 7 7 7 8 10 12 14 15 15 16 17 18 18 19 20 21 21 22 23 23 23 24 24 25 25 27 30 32 34 34 35 35 34 33 31 30 29 27 28 29 30 31 31 30 29 28 28 29 30 29 29 28 28 29 31 35 41 48 54 58 58 51 41 40 52 64 71 71 66 64 64 58 51 49
25 13 6 4 4 4 5 6 6 6 7 8 7 7 9 10 12 14 15 16 16 17 18 18 19 20 20 21 22 22 22 23 23 24 25 26 28 31 32 33 34 34 34 34 32 31 30 29 28 29 29 30 32 32 31 29 28 28 28 28 27 26 26 27 30 35 43 53 59 58 52 46 41 38 44 55 58 56 56 53 52 53 48 39 34
26 15 7 4 4 4 5 6 6 7 8 9 8 8 9 10 12 13 14 16 17 17 18 18 19 20 20 21 22 22 22 23 23 23 25 26 28 31 32 33 33 33 33 32 31 31 29 29 29 29 29 31 32 33 32 30 29 29 28 27 26 25 26 29 36 46 55 61 59 50 39 34 37 40 44 46 42 40 41 41 43 50 51 44 34
31 20 10 5 4 5 5 6 6 8 10 10 9 8 9 10 11 13 14 15 16 17 17 18 18 19 20 20 21 22 22 22 23 24 25 26 28 30 31 32 32 32 32 31 30 30 28 29 29 29 30 31 32 33 32 31 30 30 29 27 25 25 28 36 46 55 57 51 40 32 28 30 34 35 34 34 34 34 35 35 41 50 54 54 47
38 25 13 7 5 5 6 6 7 9 11 10 9 9 9 10 11 13 14 15 16 17 17 18 18 19 20 20 21 21 21 22 22 24 25 27 28 30 31 31 30 30 30 30 29 28 27 28 30 30 31 31 32 32 32 31 31 30 29 26 24 26 33 45 55 53 42 29 21 20 22 25 25 25 25 26 28 30 32 35 41 48 54 60 60
46 32 17 9 6 5 6 6 7 10 11 10 10 9 10 10 11 12 14 15 17 17 17 18 18 19 19 20 20 21 21 21 22 23 25 27 28 29 30 30 29 29 29 28 28 26 26 27 29 31 31 31 31 31 31 32 32 30 28 25 24 30 42 54 56 44 26 16 15 16 18 19 20 21 22 25 28 30 33 37 41 48 53 59 67
52 37 19 9 6 5 5 6 8 11 11 11 10 10 11 11 11 12 14 15 16 17 17 17 18 19 19 19 20 21 21 21 22 22 24 26 28 29 30 29 29 28 28 27 26 25 25 26 28 31 31 31 31 31 31 32 31 28 27 24 26 38 53 57 48 31 17 13 14 15 17 19 23 26 28 30 33 33 34 38 43 50 58 63 71
54 38 20 9 6 5 5 7 9 12 12 11 11 11 12 12 12 12 13 14 15 16 17 18 18 19 19 19 20 20 21 21 22 23 24 26 28 29 29 29 29 28 27 26 25 24 24 26 28 31 31 30 30 30 30 31 29 27 25 25 34 49 59 50 32 18 13 12 14 17 21 25 29 33 34 35 36 37 38 40 45 52 61 68 74
54 38 19 8 6 5 5 8 11 13 13 13 12 12 12 12 13 13 13 14 15 16 17 17 18 18 19 19 19 20 20 21 23 24 24 26 28 29 29 29 29 28 26 25 25 24 25 26 29 30 30 30 29 30 30 28 27 25 24 31 46 57 52 35 18 12 12 13 16 20 26 32 37 41 44 44 42 42 41 43 48 55 61 68 74
54 38 19 8 7 6 6 9 13 14 14 13 13 13 13 13 14 13 13 14 15 16 17 17 18 19 19 19 19 20 21 22 23 24 25 26 28 29 28 28 28 27 26 25 25 25 26 28 30 30 29 29 29 29 29 27 25 24 27 40 54 52 35 19 12 12 14 16 21 28 35 43 49 52 53 53 50 49 47 47 51 56 60 65 71
54 37 19 9 7 6 7 11 14 15 14 14 14 14 14 14 14 13 13 14 14 15 17 17 18 19 18 19 20 20 20 22 23 24 25 26 27 28 27 27 27 26 26 26 26 27 27 28 29 29 29 29 28 28 28 26 23 24 33 48 53 38 20 12 11 14 18 22 29 38 48 57 62 63 63 62 59 57 54 53 54 57 61 64 68
54 37 20 11 7 7 9 13 15 15 15 14 14 14 14 15 15 14 13 13 14 15 16 17 18 19 18 19 20 20 20 21 22 23 24 25 26 26 26 27 27 26 27 27 27 27 28 29 29 29 29 29 28 28 26 24 22 27 40 51 42 22 12 12 13 17 23 31 41 53 64 70 72 72 72 70 67 64 61 60 59 59 61 63 66
54 37 21 12 8 8 11 15 16 16 16 14 14 15 15 14 14 13 13 13 13 14 16 17 18 18 18 19 20 21 20 21 22 23 24 24 25 26 26 27 27 27 28 28 28 27 28 28 28 29 29 29 29 28 25 23 23 31 45 47 30 14 10 13 17 24 34 45 56 67 75 79 80 80 79 76 72 69 68 67 65 64 65 65 65
54 37 21 12 10 11 14 16 17 16 16 15 15 15 16 16 15 14 13 12 12 13 15 17 17 18 18 20 21 21 21 22 23 23 24 25 25 26 27 27 27 28 29 28 27 27 27 28 28 29 29 28 28 27 24 22 25 37 48 41 22 11 11 16 24 36 48 59 71 79 83 86 86 86 84 81 77 74 73 73 71 71 71 70 68
54 38 23 13 12 15 17 18 17 16 15 15 15 14 15 15 15 14 12 11 11 13 14 16 17 18 19 20 20 21 21 23 25 24 25 25 26 26 27 27 28 28 28 28 27 27 26 26 27 28 28 28 28 26 23 22 29 41 45 32 15 10 14 23 36 50 62 72 80 86 89 91 91 91 90 88 84 81 79 78 77 76 77 76 76
53 38 24 16 15 19 20 18 17 15 14 15 15 14 14 14 14 13 12 12 13 14 16 18 19 19 20 20 20 20 22 23 25 25 25 26 26 26 27 27 27 28 28 28 27 26 25 26 27 28 29 29 28 26 22 24 34 44 40 24 11 11 20 33 50 63 72 81 88 92 94 95 95 96 96 94 92 89 86 85 83 82 81 82 82
51 36 25 19 19 22 22 19 16 15 14 14 14 14 15 15 15 14 13 13 14 15 16 18 19 19 20 20 20 21 22 23 25 25 25 26 26 26 26 26 27 28 28 28 26 25 26 27 28 29 30 30 28 25 23 28 40 46 36 18 10 15 27 45 62 73 80 87 93 96 98 99 100 100 99 98 97 95 93 92 91 89 88 87 87
52 38 28 23 24 26 23 18 14 14 14 15 15 15 15 16 16 15 14 14 15 16 16 17 18 19 19 20 20 21 21 23 24 25 25 26 26 26 26 26 27 28 27 26 26 26 27 28 29 31 31 30 28 25 25 34 46 46 30 14 11 20 37 57 72 80 86 92 97 99 101 103 103 101 100 100 98 96 97 97 97 96 95 94 93
56 44 33 28 28 28 23 16 12 12 13 15 16 16 16 16 15 15 14 14 15 16 16 17 18 19 19 20 20 21 22 23 24 24 25 26 26 26 26 26 27 27 26 26 26 27 28 30 31 32 32 30 27 24 27 40 49 42 23 12 14 28 48 68 79 85 90 95 98 101 104 104 102 101 101 101 100 98 98 99 100 101 100 98 98
59 50 40 34 31 29 22 15 11 10 12 13 15 16 16 16 15 14 14 14 15 15 15 16 18 20 19 20 20 21 23 23 24 24 25 25 25 25 25 25 26 26 26 27 27 28 29 31 32 33 32 30 26 25 33 46 48 34 17 11 20 39 61 76 83 87 93 98 100 103 104 102 102 103 102 102 101 100 100 100 100 101 101 99 99
62 55 47 40 34 28 20 13 9 9 11 12 14 15 15 14 14 14 15 15 15 14 14 16 18 19 19 20 21 21 22 23 24 24 25 24 25 25 24 24 25 26 26 27 28 29 31 32 33 32 31 29 25 27 39 49 43 25 13 15 30 52 71 81 85 89 95 99 101 103 104 102 103 105 103 102 102 101 101 102 101 101 101 100 98
63 57 49 42 35 27 19 12 8 8 10 12 14 14 14 14 14 15 15 15 14 13 13 15 18 20 20 20 21 21 22 23 23 24 24 24 24 24 23 23 24 25 26 27 28 30 31 32 32 32 30 27 26 33 45 48 34 17 12 22 43 65 78 84 88 93 97 100 102 103 104 103 104 105 103 102 102 101 101 101 101 101 102 101 100
67 60 51 43 34 27 18 10 6 7 9 11 13 14 13 14 14 15 15 15 15 15 15 17 19 21 21 20 21 21 22 23 23 23 24 24 24 24 23 23 24 25 26 28 29 30 31 32 32 32 29 26 28 39 49 43 25 13 16 33 56 75 82 85 90 96 99 100 101 103 105 104 104 105 103 102 102 102 101 101 101 101 101 102 101
73 65 54 43 34 26 19 11 7 6 8 11 13 14 14 14 15 15 16 16 15 15 16 17 19 21 20 20 21 22 23 23 23 23 23 23 23 24 23 24 25 25 27 28 28 29 31 31 32 31 28 26 33 45 47 35 18 13 25 47 68 80 84 87 93 97 99 100 101 103 104 103 104 104 103 101 101 101 101 101 101 101 102 102 101
79 69 56 45 35 26 19 12 8 7 8 11 13 14 15 15 15 15 16 16 16 16 16 17 19 20 19 20 21 22 23 23 22 22 23 23 23 24 24 25 26 26 27 27 28 29 31 31 31 30 26 28 39 48 42 26 14 19 38 61 77 83 86 90 95 98 99 101 102 103 103 103 104 104 102 101 102 101 101 101 101 100 102 102 100
82 70 57 46 36 27 18 13 10 9 9 10 13 15 15 15 15 15 16 16 16 16 16 17 19 20 20 21 22 22 22 22 22 22 22 23 24 25 25 25 26 26 26 27 28 30 31 31 31 28 26 33 45 46 34 18 16 29 52 72 82 84 88 93 97 100 101 102 102 103 103 103 104 104 102 101 102 101 100 100 101 101 101 101 100
84 73 59 48 37 27 19 14 11 10 9 10 12 14 15 15 15 15 15 16 16 15 15 16 18 20 20 22 22 22 22 22 22 22 23 23 24 25 25 25 25 26 26 27 29 30 31 31 29 26 28 39 47 40 24 15 22 42 65 80 85 87 91 96 100 101 102 103 103 102 102 102 102 102 102 101 101 101 101 100 100 101 100 100 100
86 76 63 51 38 28 21 16 12 10 9 9 11 13 14 14 14 15 15 16 16 15 15 16 18 20 21 21 22 22 22 22 22 22 22 23 23 24 24 24 25 25 26 27 29 30 31 30 27 26 33 44 45 31 17 18 35 58 76 84 86 90 95 99 102 103 103 103 102 101 100 101 101 101 101 101 100 100 101 100 100 101 100 100 100
88 79 67 54 41 31 23 17 12 10 9 9 11 14 14 14 14 14 15 16 15 15 16 17 19 20 20 20 21 21 21 21 21 21 21 22 22 23 23 24 24 25 26 27 29 30 31 29 26 28 38 45 37 22 16 28 51 71 83 87 89 93 98 101 103 103 102 101 101 100 100 100 101 100 100 101 100 100 100 100 100 100 100 100 101
90 82 70 58 47 36 26 17 12 10 9 9 11 14 14 15 15 15 15 16 16 15 16 17 19 19 19 20 20 21 20 20 20 20 21 21 21 22 22 23 24 24 25 27 29 31 30 27 26 33 42 41 28 17 23 43 66 81 87 89 92 96 100 102 102 101 100 100 100 100 100 100 100 100 100 100 100 100 100 100 100 100 100 100 100
91 83 73 62 52 41 29 18 12 10 9 10 12 14 15 15 15 15 15 16 15 15 17 18 19 19 19 19 20 20 20 20 20 20 20 21 21 22 22 22 23 24 25 27 29 30 29 26 29 38 41 32 19 19 36 59 77 85 88 92 96 99 102 102 101 100 101 101 100 101 101 100 100 100 101 100 100 100 100 100 100 100 100 100 100
91 84 76 67 57 45 32 20 13 11 11 12 13 14 15 15 15 15 15 15 15 16 17 18 18 18 18 18 19 19 19 19 19 19 20 20 21 21 22 22 23 24 25 27 30 29 27 27 34 41 36 23 17 29 52 73 84 88 90 95 100 102 102 101 101 100 101 101 101 101 101 100 100 100 100 100 101 100 100 101 100 100 100 100 100
92 86 78 70 61 49 34 20 12 11 13 13 12 13 14 15 14 14 14 14 15 16 17 18 18 18 18 18 18 18 19 19 18 19 20 20 20 21 21 21 23 24 25 28 30 28 26 31 39 39 28 17 23 44 67 81 86 90 94 98 102 102 102 101 101 101 102 102 102 102 101 100 101 101 100 100 101 100 100 101 100 100 100 100 100
93 88 81 73 65 52 35 19 12 11 11 11 11 12 13 14 13 13 14 14 15 16 17 17 17 17 17 17 17 17 18 18 18 18 19 19 20 21 21 21 23 24 26 28 28 26 28 36 40 32 19 19 36 60 77 85 88 93 97 100 101 100 99 99 99 101 103 103 102 101 101 100 100 100 100 100 100 100 100 100 100 100 101 100 100
94 90 83 75 66 52 35 19 12 10 10 10 10 11 12 14 14 14 14 14 15 16 17 17 17 17 16 16 17 17 17 17 17 18 19 19 20 20 21 22 23 24 27 28 27 26 32 38 35 22 17 30 53 73 83 87 91 94 95 94 91 91 93 96 99 101 102 102 101 100 100 100 100 100 100 100 100 100 100 101 100 100 100 100 100
93 90 85 77 65 50 33 19 12 10 9 9 9 10 11 13 14 14 14 14 15 16 17 16 16 16 16 16 16 16 16 17 17 17 18 19 19 20 21 22 23 25 28 27 25 28 35 35 25 17 25 46 68 81 86 88 88 87 82 80 82 88 93 98 101 101 100 100 100 100 100 100 100 100 100 100 100 100 100 100 100 100 100 100 101
93 91 86 77 63 47 31 19 13 10 9 8 8 9 10 12 13 13 14 14 14 16 16 16 16 16 15 16 16 15 15 16 17 17 18 19 19 20 21 22 23 26 28 26 26 32 35 27 17 21 41 63 78 84 84 81 77 73 73 78 87 95 99 101 101 100 100 100 100 100 100 100 100 100 101 100 100 101 101 101 101 101 100 100 101
93 92 86 75 60 43 30 20 14 11 9 8 8 8 10 12 13 13 13 14 15 15 16 16 15 15 15 15 15 15 15 16 16 17 18 19 19 20 21 22 25 27 26 25 29 33 29 19 18 34 59 76 82 79 74 69 66 70 79 90 97 101 101 101 100 100 100 100 100 100 101 101 100 100 101 100 100 101 102 103 104 103 101 100 101
Wind_Speed
30 29 28 28 29 28 29 29 29 29 27 26 26 26 26 26 25 25 23 22 20 18 16 14 12 11 10 9 8 7 6 5 5 5 5 6 8 9 10 11 12 13 13 14 15 15 16 17 18 18 19 21 22 23 24 26 27 27 28 29 30 30 32 33 37 45 46 43 43 43 42 43 42 42 44 44 42 43 43 42 42 42 42 42 40
31 30 30 30 30 30 29 30 30 30 28 27 27 28 28 27 26 25 24 22 20 18 17 14 12 11 10 8 7 6 5 4 3 4 4 5 6 7 9 10 11 12 14 15 16 16 17 18 18 19 19 20 22 22 23 25 25 27 27 29 30 29 30 33 36 43 47 46 44 44 43 44 44 43 44 46 45 45 45 44 43 43 43 43 42
32 32 31 31 31 31 31 31 31 30 29 28 28 29 28 28 27 26 24 22 20 19 17 15 13 11 10 8 7 6 4 3 2 2 4 4 5 6 7 9 10 12 14 15 16 17 18 19 19 19 20 20 21 22 23 24 25 26 27 28 30 30 30 32 35 40 45 47 46 45 45 45 45 45 46 47 47 47 47 46 44 43 44 44 43
34 33 33 32 32 32 32 31 31 31 29 28 28 29 29 28 27 26 24 23 21 19 17 16 14 12 10 9 7 6 4 2 1 1 3 4 5 6 7 9 10 12 14 15 16 17 18 19 19 19 20 20 21 23 24 25 26 26 27 28 29 31 31 32 35 38 43 47 46 45 46 47 47 47 48 49 50 49 48 47 46 46 45 44 43
35 34 34 34 34 33 33 33 32 32 30 29 29 30 29 28 28 26 25 23 21 20 18 16 14 12 11 9 7 6 5 3 1 1 2 4 6 7 8 10 11 13 15 15 16 17 18 19 20 21 21 22 23 24 25 26 27 27 28 29 29 30 31 32 34 36 40 45 47 46 46 47 48 48 48 51 52 52 51 49 48 48 48 45 43
36 35 35 35 35 34 34 34 33 32 31 30 30 31 30 29 28 27 25 24 22 20 18 16 15 13 11 9 8 7 5 4 2 2 3 4 6 8 9 10 12 14 15 16 16 17 18 20 21 23 24 25 26 27 27 28 28 28 29 29 30 31 32 32 34 36 39 43 46 48 48 48 49 49 49 50 52 54 54 53 51 50 51 50 46
37 37 36 36 36 35 35 34 34 33 32 31 31 31 30 29 28 27 25 24 23 21 19 17 15 13 11 10 9 8 6 4 3 3 4 5 7 8 9 11 12 14 15 16 16 17 18 20 22 24 26 27 29 30 31 31 30 30 30 31 32 33 34 34 35 37 40 43 45 47 48 48 48 49 49 49 50 52 54 56 55 52 52 52 51
39 38 38 37 37 36 35 35 35 34 33 32 32 31 31 30 29 28 26 25 23 21 19 17 15 14 12 11 9 8 6 5 4 4 5 6 7 8 10 11 13 14 15 16 17 17 19 20 23 25 27 28 30 31 32 34 34 33 32 33 34 34 36 36 37 39 40 43 45 46 48 49 48 48 48 48 50 51 52 54 56 56 55 53 52
41 40 39 39 38 37 37 36 36 36 34 33 33 32 32 31 30 29 27 25 24 22 20 18 16 14 13 11 10 9 7 6 5 6 6 7 8 9 11 12 13 14 16 17 18 19 20 21 23 25 27 28 30 31 32 34 35 36 35 36 36 36 37 38 39 40 41 43 45 45 48 49 48 48 48 46 48 50 51 52 54 56 57 55 53
43 41 41 40 39 38 38 38 38 38 36 35 34 33 33 32 31 29 28 26 24 23 21 19 17 15 13 12 10 9 8 7 7 7 7 8 9 10 11 13 14 15 16 17 18 19 21 22 23 25 26 28 29 30 31 32 33 34 34 35 36 37 39 40 40 41 42 44 45 45 47 48 48 47 47 46 46 47 48 50 52 54 56 57 56
44 42 42 41 40 40 40 40 40 39 38 36 35 34 34 33 32 30 29 27 25 23 21 19 17 15 14 12 11 10 9 9 8 8 8 8 9 11 12 13 14 16 17 18 19 20 21 22 23 25 26 27 28 28 29 30 31 31 31 31 33 35 37 39 41 42 43 44 45 45 45 47 47 47 47 46 45 46 46 47 49 51 52 55 57
45 44 43 42 42 42 42 42 41 40 39 37 36 35 34 34 33 31 29 28 26 24 22 20 18 16 14 13 12 11 11 10 9 10 10 9 9 11 12 14 15 17 18 19 21 22 23 23 23 24 26 27 28 28 28 28 28 29 29 29 29 31 33 35 38 41 43 44 46 46 45 45 46 46 45 46 46 46 46 45 45 47 48 50 54
46 45 44 44 44 43 43 43 42 41 40 38 37 36 36 35 34 32 30 28 26 24 22 20 18 17 15 14 13 12 11 10 10 10 11 11 11 11 13 14 15 17 19 20 21 23 24 25 24 24 25 26 28 28 28 28 28 27 28 28 28 29 30 32 34 38 40 43 45 46 44 43 45 44 42 43 45 46 45 45 44 44 45 48 51
48 47 45 45 45 44 43 43 43 42 41 39 38 37 37 36 34 32 30 29 27 25 23 21 19 17 16 15 14 13 12 11 11 11 11 12 12 12 13 15 16 17 18 20 21 22 24 27 26 26 26 27 28 29 29 30 30 29 28 28 28 29 30 31 33 35 37 39 43 44 42 41 42 43 42 41 43 43 43 44 43 43 44 45 47
50 48 47 47 46 45 44 44 43 42 42 41 39 38 37 36 35 33 32 30 28 25 23 21 20 18 17 16 15 14 12 11 11 11 12 13 13 13 14 15 16 18 18 19 21 22 24 26 27 27 28 28 29 30 31 32 33 33 32 31 30 30 30 31 33 35 36 38 40 42 41 40 41 42 41 39 39 40 41 41 41 42 43 44 44
51 50 48 47 47 46 45 45 44 44 43 43 41 39 38 37 35 34 32 30 28 26 24 22 20 19 17 16 15 14 13 12 12 12 12 13 14 14 15 16 17 18 19 19 20 22 24 25 27 28 28 29 29 30 32 34 35 36 36 35 34 33 31 31 33 34 35 36 37 37 38 38 37 37 36 36 37 38 40 41 40 40 41 43 44
53 51 49 48 47 46 45 45 45 45 45 44 43 41 39 37 36 34 33 31 29 27 24 22 21 19 18 17 16 15 13 12 12 12 13 14 14 15 16 16 17 18 19 19 20 21 23 25 27 28 29 29 30 31 32 34 36 37 38 38 37 36 35 34 34 34 34 33 33 32 32 33 32 32 33 33 34 36 37 39 39 38 39 41 42
54 51 49 47 47 46 45 46 46 46 46 46 44 41 39 37 36 34 33 31 29 26 24 23 22 20 19 18 16 15 14 13 12 12 13 14 15 16 17 18 18 19 20 20 21 21 23 24 26 28 29 30 30 31 32 34 36 37 39 40 40 39 39 39 39 38 37 35 33 31 29 29 29 30 30 31 32 34 35 37 37 37 37 38 39
53 51 49 46 46 46 46 46 46 46 46 46 44 41 39 37 35 34 32 31 29 27 26 24 22 21 19 18 16 15 14 13 12 12 13 14 15 16 18 19 20 20 21 21 22 22 23 24 26 28 29 30 30 30 31 33 35 36 38 40 42 41 41 41 41 41 40 39 37 35 32 31 30 30 31 31 32 33 34 35 35 35 36 36 37
51 49 48 46 46 46 46 46 47 45 45 45 43 41 38 36 35 34 33 32 30 28 26 24 22 21 19 18 16 15 14 14 14 13 13 14 15 16 18 20 22 22 22 23 23 23 23 24 25 27 29 30 30 30 30 32 34 35 37 39 42 42 42 42 42 41 41 40 39 38 37 35 34 34 34 33 33 33 33 33 33 33 34 35 35
50 48 48 47 46 46 46 46 46 44 43 43 43 42 39 37 35 34 33 32 31 29 26 25 23 21 20 18 17 16 15 14 14 14 14 15 16 17 19 21 23 23 23 24 25 26 26 25 26 27 28 29 29 30 30 31 32 35 36 38 40 41 42 43 41 40 40 40 39 39 38 38 37 36 35 34 34 33 32 31 31 30 31 33 33
50 49 48 47 46 46 46 46 46 44 43 43 44 43 40 37 36 34 33 32 31 29 27 25 23 21 20 18 17 16 15 14 14 15 15 15 16 18 20 21 23 25 25 25 26 27 28 28 28 28 28 29 29 29 30 31 33 35 36 38 39 40 40 41 40 40 39 39 39 39 38 39 38 37 37 36 34 33 32 30 29 29 29 31 32
50 49 48 47 46 46 46 46 46 45 44 44 45 44 41 38 37 35 34 33 31 29 28 26 24 22 20 18 17 16 15 14 14 15 15 15 16 18 20 22 23 25 26 27 28 29 29 29 29 29 29 29 29 30 31 33 34 36 37 38 39 40 39 39 39 39 38 38 38 38 38 38 38 37 37 36 35 34 32 31 30 29 29 30 31
51 49 48 47 46 46 46 47 47 47 46 45 45 45 42 39 38 36 35 33 32 30 28 26 24 22 20 18 17 17 16 15 15 15 15 15 16 17 20 21 23 25 26 27 29 30 31 31 30 29 29 29 30 30 32 33 35 37 38 38 39 39 39 38 38 38 38 38 38 38 37 37 37 37 36 35 35 34 33 32 31 30 30 31 31
51 50 48 47 47 46 47 48 48 48 47 46 45 45 44 41 39 37 35 34 32 30 29 27 24 22 20 19 18 17 16 15 16 16 15 15 15 17 19 21 23 25 26 28 29 31 31 31 30 29 29 30 31 32 33 34 36 37 37 38 38 38 38 37 37 37 37 37 37 37 37 37 37 36 36 35 34 35 34 33 33 32 31 31 31
51 50 48 47 47 46 47 49 49 49 49 47 45 44 43 41 39 37 35 34 32 30 29 27 24 22 20 18 18 18 17 16 16 17 16 15 15 17 19 21 23 25 27 28 29 30 30 30 29 30 30 30 32 33 34 35 36 38 39 39 39 38 37 36 35 36 36 36 36 36 36 36 36 36 36 36 35 34 35 35 34 33 33 33 32
51 50 48 47 47 48 48 49 50 50 51 49 46 44 42 41 39 37 36 34 32 30 29 27 25 22 20 18 18 18 17 16 17 18 17 16 16 18 19 21 23 25 27 28 29 30 30 29 29 29 30 31 31 32 34 35 36 38 39 40 39 37 35 34 34 34 35 36 36 36 36 36 35 35 36 36 35 34 35 35 35 35 35 34 34
51 50 49 48 48 48 49 49 50 51 52 51 49 46 43 42 40 38 36 33 31 29 28 26 24 21 20 19 19 17 16 17 18 18 17 17 18 19 20 21 23 25 27 29 29 29 30 30 29 29 30 31 32 33 34 35 35 36 37 38 37 35 34 33 33 33 34 34 34 35 35 35 35 35 35 35 35 35 34 35 35 35 36 36 36
51 50 49 48 48 48 49 49 50 52 52 52 49 46 42 40 39 37 33 31 29 28 27 25 24 22 21 20 18 16 16 18 18 18 17 17 18 19 20 21 23 25 27 29 30 30 30 30 30 31 32 33 34 35 36 37 37 37 37 37 36 34 33 32 33 33 33 34 34 35 35 35 35 35 35 35 35 34 34 34 35 35 36 36 37
52 51 49 49 49 49 49 50 50 52 52 51 49 45 41 39 37 35 32 31 29 29 28 27 25 24 22 20 18 17 17 18 18 17 17 17 18 19 20 21 23 25 27 29 30 30 31 32 32 32 33 34 36 37 38 39 40 40 39 37 35 34 33 33 33 34 34 34 34 34 35 35 35 35 35 35 35 35 34 34 35 35 36 37 37
54 52 50 50 49 49 50 50 50 52 52 51 48 45 42 40 38 36 33 32 31 30 30 28 25 24 22 19 18 18 17 17 18 17 17 17 18 19 20 20 22 25 28 29 29 30 31 32 33 33 34 35 36 37 39 40 41 41 40 38 36 34 34 34 34 34 34 34 35 35 35 35 35 35 35 35 35 35 35 34 34 35 35 37 37
53 52 50 49 49 49 49 49 50 51 52 51 48 46 42 41 39 37 34 33 32 31 30 28 26 24 22 20 19 18 18 18 18 17 17 17 18 19 19 20 21 24 27 29 30 30 31 32 33 33 34 35 37 38 39 40 40 40 40 39 37 35 35 35 34 34 34 34 35 34 34 34 34 34 34 35 35 36 35 35 35 35 35 36 37
52 50 49 49 48 48 48 48 49 50 51 50 49 46 44 42 40 37 34 33 32 32 30 28 25 24 22 20 19 19 18 18 18 17 17 17 18 19 19 20 21 24 26 28 29 30 31 32 33 33 34 36 37 38 39 40 40 40 39 38 37 36 35 35 35 34 34 34 34 34 34 34 34 34 34 34 35 35 35 36 35 35 35 35 36
49 48 47 46 47 47 47 47 48 50 50 49 48 46 44 42 39 36 34 33 33 32 30 27 25 23 22 20 20 19 18 18 18 17 17 18 19 20 20 20 21 23 25 27 29 30 31 32 33 34 35 36 37 38 39 39 39 39 38 37 36 36 36 35 35 35 35 34 34 34 34 33 33 33 33 34 34 34 34 35 35 35 35 35 35
48 47 45 44 44 44 45 45 47 48 49 48 47 44 42 40 38 36 34 33 33 31 28 26 24 23 22 21 20 20 19 18 18 18 17 18 19 20 21 21 22 23 25 26 28 30 31 32 33 34 35 36 37 38 39 39 39 38 38 37 37 36 36 35 35 35 35 35 34 34 33 33 33 33 33 33 33 34 34 35 35 35 35 35 35
48 47 46 44 43 42 42 43 44 46 47 47 45 42 39 38 36 35 34 33 32 30 27 25 24 23 23 21 20 20 19 19 19 18 17 18 20 21 21 22 23 24 25 26 27 29 30 31 32 33 34 36 37 38 39 39 38 37 36 36 36 36 36 35 35 35 34 34 34 34 33 33 33 33 33 33 33 33 34 34 34 35 34 34 34
49 48 47 44 43 42 41 41 42 43 44 44 42 40 38 37 36 35 34 33 31 30 28 26 25 24 23 21 20 20 21 20 19 18 17 18 20 21 22 23 25 26 26 26 27 28 29 30 31 32 34 35 37 38 38 38 37 36 36 36 36 36 35 34 34 34 34 34 34 34 34 33 33 33 33 33 33 33 33 33 34 34 34 33 33
48 46 45 42 41 41 41 40 41 41 42 43 41 39 38 37 36 35 34 33 31 30 28 27 26 24 22 20 20 21 22 21 20 18 18 19 19 21 22 24 25 26 27 27 28 28 29 30 30 32 33 35 37 38 38 38 37 36 36 36 36 35 35 34 34 34 35 35 35 34 34 34 33 33 33 33 33 33 33 33 33 34 34 33 32
47 45 42 41 40 40 40 40 41 41 42 42 41 39 38 37 36 36 34 33 32 30 29 27 25 23 21 20 21 22 22 21 20 19 18 19 19 21 23 24 25 26 27 27 28 28 29 30 31 32 34 35 37 37 37 37 36 35 35 36 36 35 35 35 34 35 35 35 35 34 34 34 33 33 33 33 33 33 33 33 33 33 33 33 31
48 45 43 41 41 41 40 40 41 42 42 41 40 38 37 37 36 35 34 32 31 30 28 26 24 22 20 21 22 23 23 22 20 19 19 19 20 21 22 24 25 26 27 27 28 29 30 31 31 33 34 35 37 37 37 36 36 35 36 36 36 36 35 35 35 35 35 35 35 35 34 34 34 33 33 32 32 32 32 32 32 32 32 32 31
47 45 43 42 41 41 41 41 42 41 40 39 38 37 36 36 35 33 32 32 30 29 27 25 23 21 21 22 23 23 23 22 21 20 20 20 20 21 22 23 25 26 26 27 28 29 30 31 32 33 35 35 36 36 36 35 35 36 36 36 36 36 36 35 35 35 35 35 35 35 35 34 34 33 33 32 31 31 31 31 31 31 31 31 30
46 45 43 42 42 42 42 42 41 41 40 38 37 35 34 34 33 32 31 31 29 27 26 25 23 21 21 22 23 23 23 22 22 21 21 21 21 21 22 23 25 26 26 27 28 29 30 31 32 33 34 35 35 35 35 35 35 36 36 36 36 36 36 36 36 36 36 36 36 36 35 35 34 34 33 32 31 31 30 30 30 30 30 30 29
44 44 43 41 41 40 40 40 41 41 40 38 35 34 33 32 32 31 30 29 28 27 26 25 23 21 21 22 22 23 23 22 22 22 22 22 21 21 22 23 25 25 26 26 28 29 30 31 32 33 34 34 34 34 34 35 36 36 37 37 37 37 37 37 37 37 37 37 37 36 36 36 35 34 33 32 31 30 30 29 29 29 29 29 28
44 44 43 41 40 39 39 39 41 41 39 36 33 32 32 32 32 31 30 28 27 27 26 25 22 21 21 22 22 22 23 22 23 23 22 22 22 22 22 24 24 25 25 26 27 29 30 31 32 32 33 33 33 33 33 34 35 36 36 37 37 37 37 38 38 38 38 38 38 37 37 36 35 34 33 32 31 30 29 28 28 27 27 27 27
46 45 43 42 40 39 39 39 41 41 39 36 34 34 33 32 31 30 29 28 27 27 26 24 22 21 21 21 21 22 22 22 23 23 22 22 22 22 22 23 24 25 25 26 27 28 30 31 32 32 32 32 32 32 33 34 35 35 36 36 37 37 37 38 38 38 38 38 38 38 37 36 35 34 32 31 30 29 28 27 26 26 26 26 25
46 45 43 41 40 40 40 40 41 42 40 38 37 36 35 33 31 29 28 28 27 26 25 23 22 21 20 20 21 21 22 22 23 22 22 21 21 22 22 23 24 24 25 26 27 28 29 31 32 32 32 31 31 32 33 33 34 34 35 36 36 37 37 38 39 39 39 38 38 38 37 36 34 33 31 30 28 27 26 25 24 24 24 24 24
46 44 42 40 39 40 41 41 41 41 40 39 38 37 35 33 31 29 27 27 26 25 24 23 22 21 20 20 20 21 21 22 22 21 21 21 21 21 22 23 23 24 25 25 26 28 29 30 31 31 31 31 31 32 32 33 33 34 35 35 36 37 37 38 39 39 39 38 37 37 36 35 33 32 30 28 27 26 24 23 23 22 22 22 22
45 43 41 40 40 41 42 42 41 40 39 38 38 37 35 33 31 29 27 26 25 25 24 23 21 20 19 19 20 20 21 21 21 20 20 20 20 20 21 22 23 24 25 25 26 28 29 30 30 30 31 31 32 32 33 33 34 34 35 35 36 37 37 38 38 38 38 37 37 36 35 33 32 30 28 27 25 24 23 22 21 20 20 20 20
45 43 41 41 41 43 44 42 41 40 38 37 36 36 35 34 32 30 27 26 25 24 23 22 20 19 19 19 20 20 21 21 20 19 19 19 19 20 21 21 22 23 24 25 26 27 28 29 29 30 30 31 32 32 33 33 34 35 35 36 37 37 37 37 37 37 36 36 35 35 33 32 30 29 27 26 24 22 22 20 19 19 19 19 19
44 43 41 41 42 43 43 42 41 39 37 35 35 35 35 34 33 30 27 26 25 24 22 21 20 19 19 20 20 20 20 19 19 19 18 17 18 19 20 21 22 23 24 25 26 27 28 28 28 29 30 30 31 32 33 34 35 35 36 37 37 37 38 37 36 36 35 35 35 33 31 30 28 26 25 24 23 21 20 19 18 17 18 18 17
44 43 42 41 42 43 43 42 41 39 36 35 34 34 34 33 32 30 28 25 24 23 21 20 20 20 20 20 20 20 19 19 18 18 17 16 17 19 20 20 22 23 24 25 26 27 27 27 27 28 29 30 31 31 32 34 35 35 36 37 37 37 38 37 37 36 36 34 33 32 29 28 26 25 24 22 21 20 19 17 16 16 16 16 16
Wind_Direction
196 195 192 190 192 192 191 188 184 181 179 179 178 176 174 172 173 174 174 174 172 170 168 164 162 160 153 147 143 137 130 115 90 66 50 37 30 20 10 6 2 1 2 2 2 0 359 359 357 356 352 348 348 346 345 344 342 342 339 337 338 335 332 328 320 323 334 339 340 343 345 342 344 345 341 340 342 341 342 344 346 348 350 351 353
196 195 193 192 192 192 192 189 185 183 181 180 179 178 176 175 176 177 177 177 176 173 172 167 165 165 159 154 150 146 140 121 90 58 38 29 24 16 5 359 355 354 357 358 358 357 356 356 354 352 349 346 345 344 343 343 340 339 338 334 335 335 331 327 324 322 328 336 340 341 343 342 341 343 341 339 340 341 342 343 344 346 348 349 352
197 195 194 193 192 192 192 190 187 185 183 182 182 180 179 178 179 180 180 179 178 177 175 171 169 169 166 162 159 159 156 133 96 45 24 15 10 5 358 352 349 350 353 354 354 353 352 350 349 348 346 343 343 342 342 342 340 338 337 334 333 333 331 329 327 324 325 332 338 340 341 341 340 342 341 339 340 341 341 341 342 345 347 347 350
197 196 194 194 193 192 192 191 188 187 185 185 184 183 181 181 181 182 182 182 182 181 179 176 175 175 172 171 170 172 171 158 125 27 5 353 350 351 349 345 343 346 349 349 349 348 346 344 343 343 343 342 342 342 341 340 340 338 336 334 333 332 332 330 329 327 325 328 335 339 340 340 340 342 341 339 339 340 340 340 342 344 345 346 348
198 197 195 194 194 193 192 192 190 188 188 187 187 185 183 183 184 184 184 184 184 185 184 181 180 180 179 179 180 185 188 188 204 325 337 333 336 339 340 340 339 342 344 344 344 343 341 340 340 340 340 342 342 342 342 340 339 339 336 334 333 331 331 331 329 328 326 327 332 337 339 339 339 341 341 339 337 338 339 340 341 342 342 344 348
199 198 197 196 195 194 192 192 191 190 190 190 189 187 185 185 186 187 187 187 187 188 187 185 185 184 185 186 190 196 201 208 231 285 312 319 327 331 333 333 335 337 338 338 339 340 339 338 339 340 340 342 343 341 341 340 338 339 337 334 333 332 332 332 331 329 328 328 331 335 338 338 338 339 340 339 336 336 338 338 340 341 341 341 345
199 198 198 197 197 195 194 193 192 192 192 193 192 189 187 187 188 189 190 190 190 191 191 189 189 189 190 194 199 206 211 223 247 278 301 312 317 322 324 326 329 331 331 332 335 338 340 340 339 340 340 341 342 341 339 338 337 338 337 335 335 334 333 333 332 331 330 330 332 334 335 336 337 337 338 337 335 335 336 335 336 340 340 340 342
200 199 198 198 197 196 195 193 194 194 194 195 194 191 189 189 190 191 193 193 193 194 194 193 193 193 196 201 207 214 219 231 255 275 289 300 307 312 317 320 324 326 326 329 334 337 340 341 339 339 339 340 340 339 338 337 336 338 338 337 336 335 334 334 333 333 331 330 331 332 332 333 335 336 336 336 335 334 334 333 333 336 338 338 340
200 199 199 198 197 196 195 195 195 196 196 197 196 193 191 192 192 194 195 195 196 197 197 196 196 197 201 206 212 220 227 239 257 273 283 293 302 308 313 316 319 321 324 328 334 337 339 341 340 338 338 338 338 338 337 336 336 337 337 337 336 334 334 334 333 333 331 328 329 330 330 332 333 333 334 335 333 331 332 331 330 333 334 335 338
201 201 199 199 197 196 196 196 197 197 198 198 197 194 194 194 195 196 197 197 199 200 199 199 200 202 206 211 218 224 232 243 255 268 278 288 298 303 307 312 316 319 323 329 333 336 337 338 338 336 335 336 336 335 335 334 334 334 335 335 335 333 333 333 333 332 329 327 327 328 328 330 332 331 330 332 330 328 329 330 330 332 332 331 334
202 202 201 199 197 197 196 197 198 198 199 199 198 196 195 196 197 198 199 200 200 201 202 202 203 205 208 214 222 228 235 245 254 263 272 280 289 296 302 309 314 318 323 329 332 333 334 335 335 333 331 332 333 332 331 331 331 331 332 333 333 332 332 331 331 330 327 326 326 327 327 328 329 329 328 328 327 327 328 329 329 330 328 326 327
203 202 201 199 198 198 198 198 199 199 199 200 200 198 197 197 199 201 201 202 203 203 204 205 205 208 212 218 226 232 238 247 256 266 276 282 288 296 303 310 315 320 324 328 330 330 331 331 331 330 328 329 329 328 328 329 329 329 330 331 331 332 331 330 329 327 325 324 324 326 327 327 327 328 328 327 326 327 328 327 326 326 324 322 322
204 203 201 200 200 200 200 199 200 200 201 201 201 199 199 199 201 202 203 204 205 205 206 206 208 211 215 222 229 234 242 250 259 271 280 288 295 299 305 311 317 320 323 325 326 327 327 328 328 328 327 326 326 326 326 327 328 328 328 329 331 331 331 330 326 323 324 323 322 325 328 326 324 326 328 327 326 326 324 322 322 321 321 321 320
205 204 202 201 201 201 201 200 201 201 202 202 202 201 200 200 202 203 204 205 207 207 208 209 211 214 217 224 231 237 245 253 262 273 282 290 298 302 306 313 316 318 320 322 324 326 325 325 326 327 327 327 325 326 326 327 328 329 328 330 331 332 332 330 325 323 324 323 321 324 326 325 323 326 330 328 324 321 319 319 320 319 319 321 322
206 204 203 201 202 202 202 201 202 202 202 203 203 202 201 202 203 204 205 206 208 208 209 211 213 216 220 226 233 239 247 255 264 274 283 290 297 301 306 311 313 315 318 320 322 324 322 323 324 326 328 328 327 327 328 328 329 329 329 331 332 333 334 330 326 325 326 325 324 325 326 326 327 329 329 325 320 318 317 317 319 320 320 323 326
207 205 203 202 203 203 202 202 202 202 203 204 204 204 203 203 204 205 206 207 209 210 210 212 215 218 222 228 234 240 248 256 265 275 284 290 296 300 303 308 311 313 316 319 321 322 321 323 324 326 328 329 329 330 329 329 330 329 329 331 331 332 333 330 327 328 327 326 325 325 325 326 327 325 323 320 318 318 318 319 322 324 322 324 329
208 207 205 203 204 203 202 203 203 202 203 204 205 205 204 204 205 206 207 209 211 211 212 214 217 220 224 229 234 240 247 256 266 276 283 289 295 299 302 306 309 311 314 317 319 320 321 324 326 327 329 330 331 331 330 329 329 328 328 329 330 332 332 331 330 330 329 327 327 326 326 325 323 320 318 317 318 319 321 323 326 326 325 325 328
209 208 206 205 204 204 203 203 204 204 204 205 206 205 205 206 207 207 208 211 212 212 213 215 218 221 226 230 236 243 250 256 264 273 281 287 293 298 302 305 307 310 313 316 319 321 324 328 328 328 330 331 332 332 331 329 328 327 327 328 329 332 332 332 332 332 332 331 331 331 329 326 323 322 321 321 322 324 325 327 328 328 327 327 328
209 208 207 206 205 204 204 204 205 206 206 206 206 206 206 208 208 208 210 211 212 213 215 217 219 222 227 232 237 245 252 259 265 271 279 286 292 298 302 304 307 310 314 317 320 323 327 331 331 330 331 332 332 331 330 328 326 327 328 328 329 331 332 332 333 334 334 335 335 335 334 332 331 331 331 332 331 330 330 330 330 330 328 328 330
209 208 207 207 206 205 205 206 206 207 207 207 206 207 208 209 210 210 211 212 213 215 216 218 220 223 227 233 237 244 252 261 269 274 280 288 294 299 302 304 308 311 315 318 320 324 329 333 334 332 331 331 330 329 329 327 326 327 328 328 329 331 331 332 334 334 334 335 336 336 337 337 338 339 339 338 336 335 335 333 332 331 330 330 332
208 208 207 207 207 206 206 207 208 208 208 207 207 207 209 211 211 212 213 213 215 216 217 219 222 224 228 233 237 244 251 260 270 277 283 290 295 299 302 304 307 311 316 319 321 324 330 334 335 333 331 329 328 327 327 326 326 327 329 328 329 330 331 332 334 334 335 336 336 337 338 339 340 340 340 340 339 338 337 335 333 333 332 332 332
208 208 207 207 207 206 206 207 208 208 208 207 207 208 210 211 212 213 214 214 215 216 218 220 222 225 229 233 239 245 251 257 267 275 282 289 295 299 301 302 306 310 315 319 321 325 331 335 335 333 331 329 328 327 327 327 328 329 330 329 329 330 331 331 333 334 335 336 336 338 339 339 339 339 339 340 340 339 338 337 336 335 334 335 335
208 208 207 207 207 206 207 207 207 208 208 207 208 209 211 212 213 213 214 215 215 216 218 221 223 226 230 234 239 246 251 257 263 271 280 288 293 296 298 301 306 311 315 319 323 326 331 333 332 331 330 329 328 328 329 329 330 331 331 330 330 330 331 332 333 334 335 336 337 339 339 338 338 338 339 339 338 338 337 338 339 338 337 337 337
208 207 207 207 206 206 207 207 207 208 209 208 209 210 211 213 214 214 214 215 215 216 219 221 223 226 230 234 239 245 250 256 263 269 277 285 289 292 296 301 307 312 316 321 324 327 330 331 329 329 329 329 329 330 330 331 331 331 331 331 331 331 332 333 334 334 335 337 338 338 338 338 337 337 338 338 337 336 337 339 340 340 339 339 340
207 207 207 206 206 206 206 207 208 209 209 209 210 211 212 214 214 215 215 215 216 217 219 222 224 226 231 235 241 246 250 255 263 268 274 282 288 294 299 305 310 314 317 321 324 325 327 327 326 327 329 331 331 331 331 332 332 331 331 331 332 333 333 334 334 334 336 337 337 338 337 337 337 337 337 337 337 337 338 339 340 340 340 341 342
207 207 207 206 206 207 207 207 208 209 209 210 212 213 214 216 216 216 216 216 216 217 220 222 224 227 231 236 242 249 254 260 266 272 279 287 294 299 304 309 312 314 316 319 321 323 324 323 325 328 331 333 332 331 332 333 332 332 333 333 334 335 334 335 335 335 336 336 337 337 337 337 337 337 336 338 339 339 339 339 339 340 341 341 342
207 207 207 207 206 207 208 208 209 209 209 211 213 214 215 217 218 218 218 217 217 218 220 222 224 227 231 235 240 248 257 264 270 276 285 293 298 301 306 310 312 312 313 315 319 321 322 324 327 330 331 332 332 331 331 333 333 334 334 334 335 335 334 334 335 335 335 336 336 336 336 336 337 337 337 338 340 340 340 339 339 340 341 342 343
207 207 207 207 207 208 209 210 210 210 210 211 214 215 215 216 218 219 219 219 219 220 222 224 227 229 232 236 240 247 254 261 268 276 285 293 298 302 305 308 308 309 312 314 318 320 322 324 327 330 331 331 331 331 331 333 334 334 334 334 334 334 333 334 334 335 335 336 335 336 336 336 337 338 338 339 340 341 340 339 339 340 341 343 344
207 208 208 207 208 209 210 211 211 211 212 213 215 216 217 219 220 221 220 220 220 221 223 225 227 229 233 236 241 246 251 257 265 274 283 290 295 299 302 305 308 310 313 315 318 321 324 326 329 331 332 331 331 332 333 334 334 334 335 335 334 334 335 334 335 335 336 336 336 337 337 338 338 338 339 340 340 341 340 340 340 340 341 342 344
206 207 208 208 209 210 210 211 211 212 213 215 216 217 218 220 222 222 221 220 219 220 222 223 225 229 233 237 241 244 247 255 263 271 279 286 291 296 302 306 309 312 313 314 318 323 326 327 329 332 332 332 332 333 333 334 335 335 335 336 335 335 336 336 336 336 336 336 337 338 338 339 339 339 339 339 340 340 341 341 340 341 341 341 343
206 206 207 209 210 211 211 212 212 212 213 216 217 218 219 220 221 221 220 220 220 220 222 223 225 229 232 236 241 244 247 253 260 268 276 283 289 295 302 307 309 311 312 315 320 325 326 327 329 332 332 332 332 333 333 333 334 334 334 335 336 337 337 337 337 336 336 336 338 339 339 339 339 339 339 339 339 340 341 341 341 341 341 341 342
208 207 207 209 211 212 213 213 213 213 213 214 216 218 220 222 222 221 220 220 220 221 223 223 224 229 232 235 241 246 250 255 261 268 275 282 289 295 301 306 308 310 313 318 323 325 325 326 328 331 331 331 331 332 332 332 333 333 334 334 336 337 337 336 336 335 336 337 338 339 339 339 339 339 339 339 339 340 341 341 342 342 342 341 341
210 210 210 209 211 212 213 214 214 214 214 215 216 217 220 222 222 222 221 221 222 223 224 224 225 228 232 236 240 244 250 257 265 272 278 284 290 295 300 305 309 312 316 320 322 323 324 325 328 329 329 330 331 331 331 331 331 332 333 334 334 335 335 335 335 335 336 337 338 339 339 339 338 338 338 339 339 340 340 341 342 342 342 341 341
211 213 214 213 213 213 213 214 215 215 216 216 217 218 221 222 222 222 222 222 223 224 224 224 225 229 233 237 241 246 250 257 264 271 277 284 290 295 299 305 309 313 317 320 321 322 323 325 327 328 328 329 329 329 329 330 331 332 333 333 333 334 334 334 334 334 335 337 338 338 338 338 338 338 338 339 339 339 340 341 341 342 341 341 340
210 213 216 218 218 217 216 216 216 216 216 217 217 220 223 224 223 223 223 224 226 227 227 226 227 231 235 239 244 249 254 259 264 270 278 285 291 295 300 306 311 314 317 319 320 322 323 325 327 327 327 328 328 328 329 330 331 332 332 332 332 333 333 333 333 333 334 335 337 337 338 337 337 338 337 338 338 339 340 340 340 340 341 340 340
209 211 214 217 219 220 220 220 218 218 217 217 218 221 223 224 224 225 225 226 226 228 228 227 228 232 236 241 246 252 256 261 265 272 280 287 292 297 303 308 312 314 317 319 320 321 322 324 325 325 326 326 327 328 329 330 330 331 331 331 331 331 332 332 332 332 333 334 335 336 337 336 337 337 336 337 338 338 339 339 339 339 339 340 339
209 210 212 214 216 218 220 221 221 220 218 218 220 222 223 224 224 224 225 226 226 226 227 227 228 232 236 241 247 253 257 262 267 274 282 287 293 300 305 308 311 313 316 319 319 320 321 322 323 323 325 326 327 328 329 329 329 329 330 330 330 330 330 330 330 330 331 333 334 335 336 336 336 335 335 336 337 337 337 337 337 337 338 339 339
211 212 213 214 215 216 218 219 220 219 219 219 220 221 222 223 224 224 225 225 225 226 227 226 228 232 237 243 248 253 258 263 268 275 281 287 295 301 304 306 309 311 314 317 318 318 319 321 322 324 325 326 328 328 328 328 328 328 329 329 329 329 329 329 329 330 331 333 334 334 335 334 334 334 335 335 335 336 336 336 336 336 337 338 339
211 212 213 215 217 218 218 218 218 218 218 218 218 219 221 223 223 224 225 225 224 225 226 226 228 232 237 244 250 254 259 264 270 276 283 290 296 299 301 304 307 309 312 315 317 317 319 321 323 325 327 328 328 328 327 327 327 327 328 328 328 328 328 328 329 330 331 332 333 333 333 333 333 333 334 334 334 334 335 335 334 334 335 337 337
209 209 211 214 216 218 218 218 218 218 217 217 216 218 220 222 223 224 225 225 225 226 226 226 228 232 237 243 250 256 261 267 273 280 286 290 293 296 299 302 305 308 311 314 316 317 319 322 324 326 328 328 328 327 326 326 326 327 328 327 327 327 328 328 328 329 330 331 332 332 332 332 332 332 332 333 333 333 332 333 333 333 334 335 336
209 209 210 213 215 217 217 218 218 217 216 216 216 219 221 222 223 224 225 226 226 227 227 227 228 232 237 243 249 255 262 268 274 280 284 288 292 296 299 302 304 307 311 314 316 318 320 323 325 326 327 328 328 326 325 325 326 327 327 327 327 327 327 328 328 328 329 329 330 331 331 331 330 331 331 331 331 331 331 332 332 332 332 333 335
210 210 211 213 214 216 217 218 217 215 214 214 217 219 220 222 223 224 225 226 227 227 227 227 229 232 238 244 250 256 262 268 274 279 283 287 292 297 301 303 304 308 312 315 316 318 320 323 325 326 327 327 327 326 325 325 326 327 327 326 326 326 327 327 327 327 327 328 329 330 330 330 329 329 330 330 330 330 331 331 331 331 331 332 334
211 211 213 214 215 217 219 218 216 214 212 213 216 217 218 220 222 224 225 226 226 226 226 227 229 233 238 244 251 257 263 269 274 279 283 289 294 299 302 303 305 309 313 315 316 318 321 322 324 326 327 327 326 325 325 326 326 326 326 326 326 326 326 327 327 327 327 328 329 329 328 328 329 329 329 329 329 329 330 330 330 330 331 331 332
210 211 213 215 217 219 220 219 216 214 213 214 216 216 217 219 221 222 224 224 225 225 226 227 229 234 239 245 251 257 263 269 275 279 284 290 296 300 302 303 306 310 313 315 316 319 320 322 323 326 327 327 326 325 325 326 326 326 326 325 325 326 326 326 326 326 327 327 327 327 327 327 328 328 328 328 328 328 329 329 328 328 329 330 331
209 211 213 215 217 218 219 218 216 213 213 214 216 216 216 218 220 221 222 223 224 225 226 227 230 235 240 245 251 257 263 269 274 279 285 291 296 300 302 304 307 311 313 315 317 319 320 321 323 326 327 327 326 326 326 327 327 326 325 325 325 326 326 325 325 325 326 326 326 326 326 326 326 327 327 328 327 327 327 327 327 327 328 329 329
209 211 213 215 216 216 216 215 214 212 213 215 217 217 217 219 220 221 222 223 224 225 226 228 231 236 240 245 251 257 263 268 273 279 285 291 296 300 302 304 308 312 314 316 318 319 320 322 324 326 327 327 327 327 328 327 327 326 325 325 325 325 325 325 325 325 326 325 325 324 325 325 326 327 327 327 326 326 326 326 326 327 327 327 328
210 212 213 215 216 216 215 214 213 213 215 217 218 218 219 220 221 222 223 224 224 225 226 229 233 236 240 245 250 256 262 267 272 279 285 290 296 300 303 306 310 313 314 316 318 319 321 323 325 327 327 327 327 328 329 328 327 326 326 326 326 326 326 326 326 326 325 325 324 324 325 326 326 328 328 327 327 327 326 326 327 327 326 326 329
210 211 213 213 214 214 214 213 213 215 217 218 219 219 220 220 221 223 224 224 224 225 227 230 234 238 241 246 251 256 261 266 272 279 285 291 296 300 303 307 311 313 315 317 319 321 323 325 327 327 327 327 328 329 329 328 327 327 327 327 327 327 327 326 326 326 325 325 325 326 327 327 328 329 329 328 328 328 328 328 329 327 325 327 330
209 210 211 212 212 212 213 213 214 216 218 219 220 220 220 220 221 222 223 224 224 225 228 231 235 239 243 247 252 257 261 267 274 280 285 292 298 302 305 309 312 314 316 318 320 322 325 327 328 327 327 328 329 330 329 329 328 328 328 329 329 329 328 328 327 327 327 327 328 329 329 330 330 330 329 329 330 330 330 330 330 326 326 329 332
208 209 210 211 211 212 213 214 216 218 220 220 220 221 221 221 221 221 222 223 224 226 229 233 237 241 245 249 253 258 263 269 275 281 287 295 300 303 306 311 313 315 317 319 321 324 327 328 328 328 328 329 330 330 330 329 329 330 331 331 331 331 330 329 329 330 330 330 331 332 332 332 332 331 330 330 331 331 332 331 329 327 328 332 333
208 209 210 210 211 212 213 215 217 219 220 220 221 222 222 222 221 221 222 224 225 227 230 234 238 242 246 250 255 260 266 271 277 282 290 298 302 304 308 312 314 315 318 320 323 327 329 329 329 328 329 330 331 331 330 330 331 332 333 333 332 331 331 331 332 333 333 333 334 335 334 334 334 333 332 331 331 331 332 331 329 329 332 334 333